Weather History for Cape Girardeau, MO

Change the Weather History Date:

Thursday, May 15, 2014

  Actual Average Record
Temperature  
Mean Temperature 56 °F 66 °F  
Max Temperature 65 °F 78 °F 90 °F (1962)
Min Temperature 47 °F 55 °F 43 °F (1973)
Degree Days  
Heating Degree Days 9 2  
Month to date heating degree days 50 47  
Since 1 July heating degree days 4913 4365  
Cooling Degree Days 0 4  
Month to date cooling degree days 73 38  
Year to date cooling degree days 84 69  
Growing Degree Days 5 (Base 50)    
Moisture  
Dew Point 46 °F    
Average Humidity 70    
Maximum Humidity 93    
Minimum Humidity 46    
Precipitation  
Precipitation 0.15 in 0.18 in 6.64 in (1986)
Month to date precipitation 4.29 2.91  
Year to date precipitation 17.75 18.55  
Sea Level Pressure  
Sea Level Pressure 30.06 in    
Wind  
Wind Speed 7 mph (West)    
Max Wind Speed 21 mph    
Max Gust Speed 26 mph    
Visibility 9 miles    
Events Rain , Thunderstorm    
T = Trace of Precipitation, MM = Missing Value Source: NWS Daily Summary

Daily Weather History Graph

Daily Weather History Graph

Search for Another Location

Airport:

Trip Planner

Search our weather history database for the weather conditions in past years. The results will help you decide how hot, cold, wet, or windy it might be!

Date:

Astronomy

May. 15, 2014 Rise Set
Actual Time 5:49 AM CDT 8:00 PM CDT
Civil Twilight 5:20 AM CDT 8:29 PM CDT
Nautical Twilight 4:44 AM CDT 9:04 PM CDT
Astronomical Twilight 4:06 AM CDT 9:43 PM CDT
Moon 9:08 PM CDT (5/15) 6:36 AM CDT (5/15)
Length of Visible Light 15h 08m
Length of Day
14h 10m
Full, 99% of the Moon is Illuminated
May 15
Full
May 21
Last Quarter
May 28
New
Jun 5
First Quarter
Jun 12
Full

Hourly Weather History & Observations

Time (CDT) Temp. Dew Point Humidity Pressure Visibility Wind Dir Wind Speed Gust Speed Precip Events Conditions
12:18 AM 48.9 °F 45.0 °F 86% 30.04 in 10.0 mi NNW 12.7 mph - N/A   Overcast
12:37 AM 48.0 °F 45.0 °F 89% 30.04 in 7.0 mi NW 11.5 mph - N/A   Overcast
12:53 AM 48.0 °F 45.0 °F 89% 30.04 in 8.0 mi NW 11.5 mph - N/A   Overcast
1:06 AM 48.0 °F 45.0 °F 89% 30.03 in 10.0 mi NW 11.5 mph - N/A   Overcast
1:53 AM 48.0 °F 44.1 °F 86% 30.03 in 10.0 mi NW 11.5 mph - 0.00 in Rain Light Rain
2:53 AM 46.9 °F 44.1 °F 90% 30.03 in 10.0 mi NW 10.4 mph - 0.00 in   Overcast
3:17 AM 46.9 °F 44.1 °F 90% 30.03 in 10.0 mi NW 8.1 mph - N/A   Overcast
3:53 AM 46.9 °F 44.1 °F 90% 30.04 in 10.0 mi NW 9.2 mph - 0.00 in   Overcast
4:53 AM 48.0 °F 44.1 °F 86% 30.05 in 10.0 mi WNW 5.8 mph - N/A   Overcast
5:53 AM 48.0 °F 44.1 °F 86% 30.06 in 10.0 mi WNW 8.1 mph - N/A   Overcast
6:53 AM 48.0 °F 44.1 °F 86% 30.09 in 10.0 mi West 8.1 mph - N/A   Overcast
7:53 AM 48.9 °F 45.0 °F 86% 30.10 in 10.0 mi West 9.2 mph - N/A   Overcast
8:53 AM 52.0 °F 45.0 °F 77% 30.10 in 10.0 mi Calm Calm - N/A   Clear
9:53 AM 55.9 °F 46.0 °F 69% 30.11 in 10.0 mi Variable 3.5 mph - N/A   Clear
10:53 AM 59.0 °F 46.0 °F 62% 30.12 in 10.0 mi Variable 3.5 mph - N/A   Clear
11:53 AM 62.1 °F 41.0 °F 46% 30.11 in 10.0 mi WNW 9.2 mph - N/A   Partly Cloudy
12:53 PM 64.0 °F 45.0 °F 50% 30.10 in 10.0 mi SW 9.2 mph - N/A   Scattered Clouds
2:53 PM 64.0 °F 46.9 °F 54% 30.06 in 10.0 mi South 8.1 mph - 0.00 in   Mostly Cloudy
3:53 PM 64.0 °F 48.0 °F 56% 30.03 in 10.0 mi South 9.2 mph - N/A   Clear
4:42 PM 60.1 °F 48.0 °F 64% 30.01 in 10.0 mi SE 6.9 mph - 0.01 in Rain , Thunderstorm Light Rain
4:53 PM 59.0 °F 50.0 °F 72% 30.02 in 10.0 mi NNW 11.5 mph - 0.01 in Rain , Thunderstorm Light Thunderstorms and Rain
5:44 PM 52.0 °F 48.9 °F 89% 30.06 in 5.0 mi West 15.0 mph - 0.09 in Rain , Thunderstorm Rain
5:53 PM 52.0 °F 48.9 °F 89% 30.07 in 10.0 mi West 10.4 mph - 0.09 in Rain , Thunderstorm Light Rain
6:06 PM 52.0 °F 48.9 °F 89% 30.04 in 5.0 mi SE 5.8 mph - 0.03 in Rain Light Rain
6:53 PM 53.1 °F 48.0 °F 83% 30.02 in 10.0 mi South 4.6 mph - 0.04 in   Mostly Cloudy
7:53 PM 52.0 °F 48.0 °F 86% 30.06 in 10.0 mi SW 5.8 mph - N/A   Clear
8:53 PM 52.0 °F 48.9 °F 89% 30.10 in 10.0 mi NW 6.9 mph - 0.00 in Rain Light Rain
9:53 PM 52.0 °F 48.9 °F 89% 30.11 in 8.0 mi Calm Calm - 0.01 in Rain Light Rain
10:53 PM 50.0 °F 48.0 °F 93% 30.10 in 10.0 mi SW 4.6 mph - 0.00 in   Clear
11:53 PM 48.9 °F 46.9 °F 93% 30.10 in 7.0 mi West 5.8 mph - N/A   Partly Cloudy